{"data":{"norad_id":67636,"epoch":"2026-09-19T22:13:02.665056Z","epoch_age_seconds":119250,"freshness":"FRESH","line1":"1 67636U 26020V   26262.92572529  .00005950  00000+0  22557-3 0  9999","line2":"2 67636  43.0022 122.4656 0001394 270.4817  89.5874 15.27582164 35823","mean_motion":15.27582164,"eccentricity":0.0001394,"inclination_deg":43.0022,"raan_deg":122.4656,"arg_perigee_deg":270.4817,"mean_anomaly_deg":89.5874,"bstar":0.00022557,"rev_number":3582,"period_min":94.266615173703,"perigee_km":482.0861678143,"apogee_km":483.99906469131,"semimajor_km":6861.1796162528,"source":"CELESTRAK","updated_at":"2026-09-20T09:00:43.614966Z"}}